Weather History for North Myrtle Beach, SC

Change the Weather History Date:

Monday, September 24, 2012

  Actual Average Record
Temperature  
Mean Temperature 68 °F 73 °F  
Max Temperature 78 °F 82 °F 89 °F (2000)
Min Temperature 57 °F 65 °F 50 °F (1999)
Degree Days  
Heating Degree Days 0 0  
Month to date heating degree days 0 0  
Since 1 July heating degree days 0 0  
Cooling Degree Days 3 8  
Month to date cooling degree days 263 264  
Year to date cooling degree days 1967 1740  
Growing Degree Days 18 (Base 50)    
Moisture  
Dew Point 53 °F    
Average Humidity 64    
Maximum Humidity 93    
Minimum Humidity 35    
Precipitation  
Precipitation 0.00 in 0.19 in 0.07 in (2011)
Month to date precipitation 0.85 5.13  
Year to date precipitation 31.32 40.48  
Sea Level Pressure  
Sea Level Pressure 30.15 in    
Wind  
Wind Speed 7 mph (NE)    
Max Wind Speed 17 mph    
Max Gust Speed 23 mph    
Visibility 10 miles    
Events      
T = Trace of Precipitation, MM = Missing Value Source: NWS Daily Summary

Daily Weather History Graph

Daily Weather History Graph

Search for Another Location

Airport:

Trip Planner

Search our weather history database for the weather conditions in past years. The results will help you decide how hot, cold, wet, or windy it might be!

Date:

Astronomy

Sep. 24, 2012 Rise Set
Actual Time 7:04 AM EDT 7:08 PM EDT
Civil Twilight 6:39 AM EDT 7:33 PM EDT
Nautical Twilight 6:10 AM EDT 8:02 PM EDT
Astronomical Twilight 5:41 AM EDT 8:31 PM EDT
Moon 3:40 PM EDT (9/24) 1:33 AM EDT (9/24)
Length of Visible Light 12h 53m
Length of Day
12h 03m
Waxing Gibbous, 70% of the Moon is Illuminated
Sep 24
Waxing Gibbous
Sep 29
Full
Oct 8
Last Quarter
Oct 15
New
Oct 21
First Quarter

Hourly Weather History & Observations

Time (EDT) Temp. Dew Point Humidity Pressure Visibility Wind Dir Wind Speed Gust Speed Precip Events Conditions
12:53 AM 61.0 °F 52.0 °F 72% 30.09 in 10.0 mi NNE 5.8 mph - N/A   Clear
1:53 AM 60.1 °F 54.0 °F 80% 30.09 in 10.0 mi NE 5.8 mph - N/A   Clear
2:53 AM 61.0 °F 53.1 °F 75% 30.09 in 10.0 mi NE 5.8 mph - N/A   Clear
3:53 AM 59.0 °F 55.0 °F 87% 30.08 in 10.0 mi NE 4.6 mph - N/A   Clear
4:53 AM 57.0 °F 55.0 °F 93% 30.09 in 10.0 mi NNE 4.6 mph - N/A   Clear
5:53 AM 57.9 °F 55.0 °F 90% 30.11 in 10.0 mi NNE 6.9 mph - N/A   Clear
6:53 AM 57.9 °F 53.1 °F 84% 30.12 in 10.0 mi NE 10.4 mph - N/A   Clear
7:53 AM 59.0 °F 53.1 °F 81% 30.14 in 10.0 mi NE 9.2 mph - N/A   Clear
8:53 AM 64.9 °F 54.0 °F 68% 30.16 in 10.0 mi NE 9.2 mph - N/A   Clear
9:53 AM 69.1 °F 53.1 °F 57% 30.17 in 10.0 mi NNE 10.4 mph - N/A   Clear
10:53 AM 71.1 °F 50.0 °F 47% 30.18 in 10.0 mi NNE 12.7 mph - N/A   Clear
11:53 AM 73.9 °F 48.9 °F 41% 30.18 in 10.0 mi NE 10.4 mph - N/A   Clear
12:53 PM 75.0 °F 46.0 °F 36% 30.17 in 10.0 mi NE 13.8 mph - N/A   Clear
1:53 PM 75.9 °F 46.9 °F 36% 30.17 in 10.0 mi NE 10.4 mph - N/A   Clear
2:53 PM 77.0 °F 48.0 °F 36% 30.15 in 10.0 mi NNE 6.9 mph 16.1 mph N/A   Clear
3:53 PM 78.1 °F 48.0 °F 35% 30.14 in 10.0 mi NE 5.8 mph - N/A   Clear
4:53 PM 75.0 °F 53.1 °F 46% 30.14 in 10.0 mi SE 6.9 mph - N/A   Clear
5:53 PM 73.9 °F 53.1 °F 48% 30.15 in 10.0 mi East 6.9 mph - N/A   Mostly Cloudy
6:53 PM 72.0 °F 53.1 °F 51% 30.16 in 10.0 mi ESE 4.6 mph - N/A   Partly Cloudy
7:53 PM 66.0 °F 55.9 °F 70% 30.17 in 10.0 mi Calm Calm - N/A   Clear
8:53 PM 62.1 °F 57.0 °F 84% 30.17 in 10.0 mi NE 3.5 mph - N/A   Clear
9:53 PM 61.0 °F 55.0 °F 81% 30.19 in 10.0 mi NE 3.5 mph - N/A   Clear
10:53 PM 59.0 °F 54.0 °F 83% 30.20 in 10.0 mi NE 3.5 mph - N/A   Clear
11:53 PM 57.9 °F 54.0 °F 87% 30.19 in 10.0 mi NE 4.6 mph - N/A   Clear